User: anonymous   Login
Location: State Line Observation Field
(36.5320°N, 77.5360°W)
Time: 14:06:16
(UTC-04:00)
Language:

JUGNU - Orbit

View from above orbital plane
View from above orbital plane
View from above satellite
View from above satellite

Ground track
Ground track

The orbit data is extracted from the following two-line orbital elements,

1 37839U 11058B   21134.14375639  .00000305  00000-0  20594-4 0  9996
2 37839  19.9614  77.2714 0019039  74.6138  56.9289 14.12713544495718
Epoch (UTC): 14 May 2021 03:27:00
Eccentricity: 0.0019039
inclination: 19.9614°
perigee height: 836 km
apogee height: 864 km
right ascension of ascending node: 77.2714°
argument of perigee: 74.6138°
revolutions per day: 14.12713544
mean anomaly at epoch: 56.9289°
orbit number at epoch: 49571

The dashed part of the orbit path shows where the satellite is in the earth's shadow,  

DLR